Location: Baix
(44.7118°N, 4.7648°E)
Time: 17:47:48
(UTC+00:00)

SR - Visible Passes

Search period start: 04 December 2020 00:00
Search period end: 14 December 2020 00:00
Orbit: 579 x 877 km, 66.7° (Epoch: 03 December)

Date Brightness Start Highest point End Pass type
(mag) Time Alt. Az. Time Alt. Az. Time Alt. Az.
04 Dec ? 17:07:19 10° SW 17:11:38 60° NW 17:16:19 10° NNE visible
04 Dec ? 18:52:49 10° WNW 18:54:48 12° NNW 18:55:52 12° NNW visible
05 Dec ? 18:01:09 10° W 18:04:29 20° NW 18:07:39 11° N visible
06 Dec ? 17:10:19 10° WSW 17:14:21 33° NW 17:18:41 10° NNE visible
07 Dec ? 18:05:20 10° WNW 18:07:32 13° NNW 18:09:50 10° N visible
08 Dec ? 17:13:47 10° W 17:17:13 21° NW 17:20:52 10° N visible
10 Dec ? 17:17:50 10° WNW 17:20:16 14° NNW 17:22:46 10° N visible
11 Dec ? 16:26:25 10° W 16:29:58 22° NW 16:33:44 10° N visible
13 Dec ? 16:30:22 10° WNW 16:32:59 15° NNW 16:35:42 10° N visible
